Year,Month,Day,Hour,Minute,Value (Times are PST for temperature in C)
2010,08,17,00,00,20.90
2010,08,17,00,01,20.90
2010,08,17,00,02,20.90
2010,08,17,00,03,20.90
2010,08,17,00,04,20.90
2010,08,17,00,05,20.90
2010,08,17,00,06,20.90
2010,08,17,00,07,20.90
2010,08,17,00,08,20.80
2010,08,17,00,09,20.80
2010,08,17,00,10,20.80
2010,08,17,00,11,20.80
2010,08,17,00,12,20.80
2010,08,17,00,13,20.80
2010,08,17,00,14,20.80
2010,08,17,00,15,20.80
2010,08,17,00,16,20.80
2010,08,17,00,17,20.80
2010,08,17,00,18,20.80
2010,08,17,00,19,20.80
2010,08,17,00,20,20.80
2010,08,17,00,21,20.80
2010,08,17,00,22,20.80
2010,08,17,00,23,20.90
2010,08,17,00,24,20.90
2010,08,17,00,25,20.90
2010,08,17,00,26,20.90
2010,08,17,00,27,20.90
2010,08,17,00,28,20.90
2010,08,17,00,29,20.90
2010,08,17,00,30,20.90
2010,08,17,00,31,20.90
2010,08,17,00,32,20.90
2010,08,17,00,33,20.90
2010,08,17,00,34,20.80
2010,08,17,00,35,20.90
2010,08,17,00,36,20.90
2010,08,17,00,37,20.90
2010,08,17,00,38,20.90
2010,08,17,00,39,20.90
2010,08,17,00,40,20.90
2010,08,17,00,41,20.90
2010,08,17,00,42,20.90
2010,08,17,00,43,20.80
2010,08,17,00,44,20.80
2010,08,17,00,45,20.80
2010,08,17,00,46,20.80
2010,08,17,00,47,20.80
2010,08,17,00,48,20.90
2010,08,17,00,49,20.90
2010,08,17,00,50,20.90
2010,08,17,00,51,20.90
2010,08,17,00,52,20.90
2010,08,17,00,53,21.00
2010,08,17,00,54,21.00
2010,08,17,00,55,21.00
2010,08,17,00,56,21.00
2010,08,17,00,57,21.00
2010,08,17,00,58,21.00
2010,08,17,00,59,21.00
2010,08,17,01,00,21.10
2010,08,17,01,01,21.10
2010,08,17,01,02,21.00
2010,08,17,01,03,21.00
2010,08,17,01,04,21.00
2010,08,17,01,05,21.00
2010,08,17,01,06,20.90
2010,08,17,01,07,20.90
2010,08,17,01,08,20.80
2010,08,17,01,09,20.80
2010,08,17,01,10,20.70
2010,08,17,01,11,20.70
2010,08,17,01,12,20.60
2010,08,17,01,13,20.60
2010,08,17,01,14,20.50
2010,08,17,01,15,20.50
2010,08,17,01,16,20.40
2010,08,17,01,17,20.40
2010,08,17,01,18,20.30
2010,08,17,01,19,20.20
2010,08,17,01,20,20.20
2010,08,17,01,21,20.20
2010,08,17,01,22,20.20
2010,08,17,01,23,20.10
2010,08,17,01,24,20.00
2010,08,17,01,25,19.90
2010,08,17,01,26,19.90
2010,08,17,01,27,19.80
2010,08,17,01,28,19.80
2010,08,17,01,29,19.70
2010,08,17,01,30,19.70
2010,08,17,01,31,19.60
2010,08,17,01,32,19.50
2010,08,17,01,33,19.50
2010,08,17,01,34,19.40
2010,08,17,01,35,19.40
2010,08,17,01,36,19.30
2010,08,17,01,37,19.20
2010,08,17,01,38,19.20
2010,08,17,01,39,19.10
2010,08,17,01,40,19.10
2010,08,17,01,41,19.10
2010,08,17,01,42,19.10
2010,08,17,01,43,19.00
2010,08,17,01,44,18.90
2010,08,17,01,45,18.90
2010,08,17,01,46,18.90
2010,08,17,01,47,18.90
2010,08,17,01,48,18.90
2010,08,17,01,49,18.90
2010,08,17,01,50,18.80
2010,08,17,01,51,18.80
2010,08,17,01,52,18.80
2010,08,17,01,53,18.70
2010,08,17,01,54,18.70
2010,08,17,01,55,18.70
2010,08,17,01,56,18.60
2010,08,17,01,57,18.60
2010,08,17,01,58,18.60
2010,08,17,01,59,18.60
2010,08,17,02,00,18.60
2010,08,17,02,01,18.60
2010,08,17,02,02,18.60
2010,08,17,02,03,18.60
2010,08,17,02,04,18.70
2010,08,17,02,05,18.70
2010,08,17,02,06,18.80
2010,08,17,02,07,18.80
2010,08,17,02,08,18.90
2010,08,17,02,09,18.90
2010,08,17,02,10,18.90
2010,08,17,02,11,18.90
2010,08,17,02,12,18.90
2010,08,17,02,13,19.00
2010,08,17,02,14,19.10
2010,08,17,02,15,19.10
2010,08,17,02,16,19.10
2010,08,17,02,17,19.10
2010,08,17,02,18,19.10
2010,08,17,02,19,19.10
2010,08,17,02,20,19.10
2010,08,17,02,21,19.10
2010,08,17,02,22,19.10
2010,08,17,02,23,19.00
2010,08,17,02,24,18.90
2010,08,17,02,25,18.90
2010,08,17,02,26,18.90
2010,08,17,02,27,18.90
2010,08,17,02,28,18.90
2010,08,17,02,29,18.80
2010,08,17,02,30,18.80
2010,08,17,02,31,18.80
2010,08,17,02,32,18.70
2010,08,17,02,33,18.70
2010,08,17,02,34,18.60
2010,08,17,02,35,18.60
2010,08,17,02,36,18.50
2010,08,17,02,37,18.50
2010,08,17,02,38,18.40
2010,08,17,02,39,18.30
2010,08,17,02,40,18.30
2010,08,17,02,41,18.20
2010,08,17,02,42,18.20
2010,08,17,02,43,18.10
2010,08,17,02,44,18.10
2010,08,17,02,45,18.00
2010,08,17,02,46,17.90
2010,08,17,02,47,17.90
2010,08,17,02,48,17.80
2010,08,17,02,49,17.70
2010,08,17,02,50,17.70
2010,08,17,02,51,17.60
2010,08,17,02,52,17.60
2010,08,17,02,53,17.50
2010,08,17,02,54,17.50
2010,08,17,02,55,17.50
2010,08,17,02,56,17.40
2010,08,17,02,57,17.40
2010,08,17,02,58,17.40
2010,08,17,02,59,17.40
2010,08,17,03,00,17.30
2010,08,17,03,01,17.30
2010,08,17,03,02,17.30
2010,08,17,03,03,17.30
2010,08,17,03,04,17.30
2010,08,17,03,05,17.30
2010,08,17,03,06,17.30
2010,08,17,03,07,17.30
2010,08,17,03,08,17.30
2010,08,17,03,09,17.30
2010,08,17,03,10,17.30
2010,08,17,03,11,17.40
2010,08,17,03,12,17.40
2010,08,17,03,13,17.40
2010,08,17,03,14,17.40
2010,08,17,03,15,17.50
2010,08,17,03,16,17.50
2010,08,17,03,17,17.50
2010,08,17,03,18,17.60
2010,08,17,03,19,17.60
2010,08,17,03,20,17.60
2010,08,17,03,21,17.70
2010,08,17,03,22,17.70
2010,08,17,03,23,17.70
2010,08,17,03,24,17.80
2010,08,17,03,25,17.80
2010,08,17,03,26,17.80
2010,08,17,03,27,17.80
2010,08,17,03,28,17.90
2010,08,17,03,29,17.90
2010,08,17,03,30,17.90
2010,08,17,03,31,17.90
2010,08,17,03,32,17.90
2010,08,17,03,33,17.90
2010,08,17,03,34,17.90
2010,08,17,03,35,17.90
2010,08,17,03,36,17.90
2010,08,17,03,37,17.90
2010,08,17,03,38,17.90
2010,08,17,03,39,17.90
2010,08,17,03,40,17.90
2010,08,17,03,41,17.90
2010,08,17,03,42,17.90
2010,08,17,03,43,17.90
2010,08,17,03,44,18.00
2010,08,17,03,45,18.10
2010,08,17,03,46,18.10
2010,08,17,03,47,18.10
2010,08,17,03,48,18.10
2010,08,17,03,49,18.10
2010,08,17,03,50,18.10
2010,08,17,03,51,18.10
2010,08,17,03,52,18.10
2010,08,17,03,53,18.10
2010,08,17,03,54,18.10
2010,08,17,03,55,18.10
2010,08,17,03,56,18.10
2010,08,17,03,57,18.00
2010,08,17,03,58,17.90
2010,08,17,03,59,17.90
2010,08,17,04,00,17.90
2010,08,17,04,01,18.00
2010,08,17,04,02,18.00
2010,08,17,04,03,18.00
2010,08,17,04,04,17.90
2010,08,17,04,05,17.90
2010,08,17,04,06,17.90
2010,08,17,04,07,17.90
2010,08,17,04,08,17.90
2010,08,17,04,09,17.90
2010,08,17,04,10,17.90
2010,08,17,04,11,17.90
2010,08,17,04,12,17.90
2010,08,17,04,13,17.90
2010,08,17,04,14,17.90
2010,08,17,04,15,17.90
2010,08,17,04,16,17.80
2010,08,17,04,17,17.80
2010,08,17,04,18,17.80
2010,08,17,04,19,17.80
2010,08,17,04,20,17.80
2010,08,17,04,21,17.70
2010,08,17,04,22,17.70
2010,08,17,04,23,17.70
2010,08,17,04,24,17.70
2010,08,17,04,25,17.70
2010,08,17,04,26,17.70
2010,08,17,04,27,17.70
2010,08,17,04,28,17.70
2010,08,17,04,29,17.70
2010,08,17,04,30,17.70
2010,08,17,04,31,17.60
2010,08,17,04,32,17.60
2010,08,17,04,33,17.60
2010,08,17,04,34,17.60
2010,08,17,04,35,17.60
2010,08,17,04,36,17.60
2010,08,17,04,37,17.60
2010,08,17,04,38,17.60
2010,08,17,04,39,17.60
2010,08,17,04,40,17.60
2010,08,17,04,41,17.60
2010,08,17,04,42,17.60
2010,08,17,04,43,17.50
2010,08,17,04,44,17.50
2010,08,17,04,45,17.50
2010,08,17,04,46,17.50
2010,08,17,04,47,17.50
2010,08,17,04,48,17.50
2010,08,17,04,49,17.40
2010,08,17,04,50,17.40
2010,08,17,04,51,17.40
2010,08,17,04,52,17.30
2010,08,17,04,53,17.30
2010,08,17,04,54,17.30
2010,08,17,04,55,17.30
2010,08,17,04,56,17.30
2010,08,17,04,57,17.20
2010,08,17,04,58,17.20
2010,08,17,04,59,17.20
2010,08,17,05,00,17.20
2010,08,17,05,01,17.10
2010,08,17,05,02,17.10
2010,08,17,05,03,17.10
2010,08,17,05,04,17.10
2010,08,17,05,05,17.00
2010,08,17,05,06,17.00
2010,08,17,05,07,17.00
2010,08,17,05,08,17.00
2010,08,17,05,09,16.90
2010,08,17,05,10,16.90
2010,08,17,05,11,16.90
2010,08,17,05,12,16.90
2010,08,17,05,13,16.90
2010,08,17,05,14,16.80
2010,08,17,05,15,16.80
2010,08,17,05,16,16.80
2010,08,17,05,17,16.80
2010,08,17,05,18,16.80
2010,08,17,05,19,16.70
2010,08,17,05,20,16.70
2010,08,17,05,21,16.70
2010,08,17,05,22,16.70
2010,08,17,05,23,16.70
2010,08,17,05,24,16.70
2010,08,17,05,25,16.70
2010,08,17,05,26,16.70
2010,08,17,05,27,16.70
2010,08,17,05,28,16.70
2010,08,17,05,29,16.70
2010,08,17,05,30,16.70
2010,08,17,05,31,16.70
2010,08,17,05,32,16.70
2010,08,17,05,33,16.70
2010,08,17,05,34,16.70
2010,08,17,05,35,16.70
2010,08,17,05,36,16.70
2010,08,17,05,37,16.70
2010,08,17,05,38,16.70
2010,08,17,05,39,16.70
2010,08,17,05,40,16.70
2010,08,17,05,41,16.70
2010,08,17,05,42,16.70
2010,08,17,05,43,16.70
2010,08,17,05,44,16.70
2010,08,17,05,45,16.70
2010,08,17,05,46,16.70
2010,08,17,05,47,16.70
2010,08,17,05,48,16.70
2010,08,17,05,49,16.70
2010,08,17,05,50,16.70
2010,08,17,05,51,16.70
2010,08,17,05,52,16.70
2010,08,17,05,53,16.70
2010,08,17,05,54,16.80
2010,08,17,05,55,16.80
2010,08,17,05,56,16.80
2010,08,17,05,57,16.80
2010,08,17,05,58,16.80
2010,08,17,05,59,16.80
2010,08,17,06,00,16.80
2010,08,17,06,01,16.80
2010,08,17,06,02,16.80
2010,08,17,06,03,16.80
2010,08,17,06,04,16.90
2010,08,17,06,05,16.90
2010,08,17,06,06,16.90
2010,08,17,06,07,16.80
2010,08,17,06,08,16.80
2010,08,17,06,09,16.80
2010,08,17,06,10,16.70
2010,08,17,06,11,16.70
2010,08,17,06,12,16.70
2010,08,17,06,13,16.60
2010,08,17,06,14,16.50
2010,08,17,06,15,16.40
2010,08,17,06,16,16.40
2010,08,17,06,17,16.40
2010,08,17,06,18,16.30
2010,08,17,06,19,16.30
2010,08,17,06,20,16.20
2010,08,17,06,21,16.20
2010,08,17,06,22,16.10
2010,08,17,06,23,16.10
2010,08,17,06,24,16.10
2010,08,17,06,25,16.10
2010,08,17,06,26,16.10
2010,08,17,06,27,16.10
2010,08,17,06,28,16.00
2010,08,17,06,29,15.90
2010,08,17,06,30,15.90
2010,08,17,06,31,15.90
2010,08,17,06,32,15.90
2010,08,17,06,33,15.90
2010,08,17,06,34,15.90
2010,08,17,06,35,15.90
2010,08,17,06,36,15.90
2010,08,17,06,37,15.90
2010,08,17,06,38,16.00
2010,08,17,06,39,16.10
2010,08,17,06,40,16.10
2010,08,17,06,41,16.10
2010,08,17,06,42,16.10
2010,08,17,06,43,16.10
2010,08,17,06,44,16.10
2010,08,17,06,45,16.10
2010,08,17,06,46,16.10
2010,08,17,06,47,16.10
2010,08,17,06,48,16.20
2010,08,17,06,49,16.20
2010,08,17,06,50,16.20
2010,08,17,06,51,16.20
2010,08,17,06,52,16.20
2010,08,17,06,53,16.30
2010,08,17,06,54,16.30
2010,08,17,06,55,16.30
2010,08,17,06,56,16.30
2010,08,17,06,57,16.40
2010,08,17,06,58,16.40
2010,08,17,06,59,16.40
2010,08,17,07,00,16.40
2010,08,17,07,01,16.40
2010,08,17,07,02,16.40
2010,08,17,07,03,16.40
2010,08,17,07,04,16.40
2010,08,17,07,05,16.50
2010,08,17,07,06,16.60
2010,08,17,07,07,16.60
2010,08,17,07,08,16.60
2010,08,17,07,09,16.60
2010,08,17,07,10,16.60
2010,08,17,07,11,16.60
2010,08,17,07,12,16.60
2010,08,17,07,13,16.60
2010,08,17,07,14,16.60
2010,08,17,07,15,16.60
2010,08,17,07,16,16.60
2010,08,17,07,17,16.60
2010,08,17,07,18,16.70
2010,08,17,07,19,16.70
2010,08,17,07,20,16.80
2010,08,17,07,21,16.80
2010,08,17,07,22,16.90
2010,08,17,07,23,16.90
2010,08,17,07,24,16.90
2010,08,17,07,25,17.00
2010,08,17,07,26,17.00
2010,08,17,07,27,17.00
2010,08,17,07,28,17.00
2010,08,17,07,29,17.10
2010,08,17,07,30,17.10
2010,08,17,07,31,17.10
2010,08,17,07,32,17.20
2010,08,17,07,33,17.30
2010,08,17,07,34,17.30
2010,08,17,07,35,17.30
2010,08,17,07,36,17.40
2010,08,17,07,37,17.40
2010,08,17,07,38,17.50
2010,08,17,07,39,17.50
2010,08,17,07,40,17.60
2010,08,17,07,41,17.70
2010,08,17,07,42,17.70
2010,08,17,07,43,17.80
2010,08,17,07,44,17.80
2010,08,17,07,45,17.90
2010,08,17,07,46,17.90
2010,08,17,07,47,17.90
2010,08,17,07,48,17.90
2010,08,17,07,49,18.00
2010,08,17,07,50,18.10
2010,08,17,07,51,18.10
2010,08,17,07,52,18.10
2010,08,17,07,53,18.20
2010,08,17,07,54,18.20
2010,08,17,07,55,18.20
2010,08,17,07,56,18.20
2010,08,17,07,57,18.20
2010,08,17,07,58,18.20
2010,08,17,07,59,18.30
2010,08,17,08,00,18.30
2010,08,17,08,01,18.30
2010,08,17,08,02,18.30
2010,08,17,08,03,18.40
2010,08,17,08,04,18.40
2010,08,17,08,05,18.40
2010,08,17,08,06,18.40
2010,08,17,08,07,18.40
2010,08,17,08,08,18.40
2010,08,17,08,09,18.40
2010,08,17,08,10,18.40
2010,08,17,08,11,18.40
2010,08,17,08,12,18.40
2010,08,17,08,13,18.50
2010,08,17,08,14,18.50
2010,08,17,08,15,18.50
2010,08,17,08,16,18.50
2010,08,17,08,17,18.50
2010,08,17,08,18,18.50
2010,08,17,08,19,18.60
2010,08,17,08,20,18.60
2010,08,17,08,21,18.60
2010,08,17,08,22,18.70
2010,08,17,08,23,18.70
2010,08,17,08,24,18.80
2010,08,17,08,25,18.90
2010,08,17,08,26,18.90
2010,08,17,08,27,18.90
2010,08,17,08,28,18.90
2010,08,17,08,29,19.00
2010,08,17,08,30,19.10
2010,08,17,08,31,19.10
2010,08,17,08,32,19.10
2010,08,17,08,33,19.10
2010,08,17,08,34,19.20
2010,08,17,08,35,19.20
2010,08,17,08,36,19.30
2010,08,17,08,37,19.30
2010,08,17,08,38,19.40
2010,08,17,08,39,19.50
2010,08,17,08,40,19.50
2010,08,17,08,41,19.60
2010,08,17,08,42,19.70
2010,08,17,08,43,19.80
2010,08,17,08,44,19.90
2010,08,17,08,45,19.90
2010,08,17,08,46,20.00
2010,08,17,08,47,20.10
2010,08,17,08,48,20.20
2010,08,17,08,49,20.20
2010,08,17,08,50,20.40
2010,08,17,08,51,20.50
2010,08,17,08,52,20.70
2010,08,17,08,53,20.80
2010,08,17,08,54,20.90
2010,08,17,08,55,21.00
2010,08,17,08,56,21.10
2010,08,17,08,57,21.20
2010,08,17,08,58,21.30
2010,08,17,08,59,21.30
2010,08,17,09,00,21.50
2010,08,17,09,01,21.60
2010,08,17,09,02,21.60
2010,08,17,09,03,21.70
2010,08,17,09,04,21.80
2010,08,17,09,05,21.90
2010,08,17,09,06,21.90
2010,08,17,09,07,22.00
2010,08,17,09,08,22.10
2010,08,17,09,09,22.10
2010,08,17,09,10,22.10
2010,08,17,09,11,22.20
2010,08,17,09,12,22.30
2010,08,17,09,13,22.30
2010,08,17,09,14,22.40
2010,08,17,09,15,22.40
2010,08,17,09,16,22.50
2010,08,17,09,17,22.50
2010,08,17,09,18,22.60
2010,08,17,09,19,22.60
2010,08,17,09,20,22.70
2010,08,17,09,21,22.70
2010,08,17,09,22,22.80
2010,08,17,09,23,22.90
2010,08,17,09,24,22.90
2010,08,17,09,25,23.10
2010,08,17,09,26,23.20
2010,08,17,09,27,23.20
2010,08,17,09,28,23.30
2010,08,17,09,29,23.30
2010,08,17,09,30,23.30
2010,08,17,09,31,23.40
2010,08,17,09,32,23.40
2010,08,17,09,33,23.40
2010,08,17,09,34,23.40
2010,08,17,09,35,23.40
2010,08,17,09,36,23.40
2010,08,17,09,37,23.40
2010,08,17,09,38,23.40
2010,08,17,09,39,23.50
2010,08,17,09,40,23.60
2010,08,17,09,41,23.70
2010,08,17,09,42,23.70
2010,08,17,09,43,23.70
2010,08,17,09,44,23.80
2010,08,17,09,45,23.80
2010,08,17,09,46,23.90
2010,08,17,09,47,23.90
2010,08,17,09,48,23.90
2010,08,17,09,49,24.00
2010,08,17,09,50,24.10
2010,08,17,09,51,24.10
2010,08,17,09,52,24.10
2010,08,17,09,53,24.10
2010,08,17,09,54,24.10
2010,08,17,09,55,24.10
2010,08,17,09,56,24.10
2010,08,17,09,57,24.10
2010,08,17,09,58,24.10
2010,08,17,09,59,24.10
2010,08,17,10,00,24.00
2010,08,17,10,01,24.00
2010,08,17,10,02,24.10
2010,08,17,10,03,24.10
2010,08,17,10,04,24.10
2010,08,17,10,05,24.10
2010,08,17,10,06,24.10
2010,08,17,10,07,24.10
2010,08,17,10,08,24.20
2010,08,17,10,09,24.20
2010,08,17,10,10,24.20
2010,08,17,10,11,24.20
2010,08,17,10,12,24.20
2010,08,17,10,13,24.30
2010,08,17,10,14,24.30
2010,08,17,10,15,24.50
2010,08,17,10,16,24.50
2010,08,17,10,17,24.60
2010,08,17,10,18,24.70
2010,08,17,10,19,24.70
2010,08,17,10,20,24.70
2010,08,17,10,21,24.70
2010,08,17,10,22,24.70
2010,08,17,10,23,24.80
2010,08,17,10,24,24.90
2010,08,17,10,25,24.90
2010,08,17,10,26,25.00
2010,08,17,10,27,25.10
2010,08,17,10,28,25.20
2010,08,17,10,29,25.20
2010,08,17,10,30,25.30
2010,08,17,10,31,25.30
2010,08,17,10,32,25.30
2010,08,17,10,33,25.40
2010,08,17,10,34,25.40
2010,08,17,10,35,25.40
2010,08,17,10,36,25.40
2010,08,17,10,37,25.40
2010,08,17,10,38,25.40
2010,08,17,10,39,25.40
2010,08,17,10,40,25.50
2010,08,17,10,41,25.50
2010,08,17,10,42,25.50
2010,08,17,10,43,25.60
2010,08,17,10,44,25.60
2010,08,17,10,45,25.60
2010,08,17,10,46,25.60
2010,08,17,10,47,25.50
2010,08,17,10,48,25.50
2010,08,17,10,49,25.40
2010,08,17,10,50,25.30
2010,08,17,10,51,25.30
2010,08,17,10,52,25.20
2010,08,17,10,53,25.20
2010,08,17,10,54,25.20
2010,08,17,10,55,25.20
2010,08,17,10,56,25.20
2010,08,17,10,57,25.20
2010,08,17,10,58,25.30
2010,08,17,10,59,25.30
2010,08,17,11,00,25.40
2010,08,17,11,01,25.40
2010,08,17,11,02,25.50
2010,08,17,11,03,25.50
2010,08,17,11,04,25.50
2010,08,17,11,05,25.60
2010,08,17,11,06,25.60
2010,08,17,11,07,25.60
2010,08,17,11,08,25.60
2010,08,17,11,09,25.60
2010,08,17,11,10,25.70
2010,08,17,11,11,25.70
2010,08,17,11,12,25.70
2010,08,17,11,13,25.80
2010,08,17,11,14,25.80
2010,08,17,11,15,25.90
2010,08,17,11,16,25.90
2010,08,17,11,17,25.90
2010,08,17,11,18,25.90
2010,08,17,11,19,25.90
2010,08,17,11,20,26.00
2010,08,17,11,21,26.00
2010,08,17,11,22,26.10
2010,08,17,11,23,26.10
2010,08,17,11,24,26.20
2010,08,17,11,25,26.20
2010,08,17,11,26,26.20
2010,08,17,11,27,26.30
2010,08,17,11,28,26.40
2010,08,17,11,29,26.40
2010,08,17,11,30,26.50
2010,08,17,11,31,26.60
2010,08,17,11,32,26.60
2010,08,17,11,33,26.70
2010,08,17,11,34,26.70
2010,08,17,11,35,26.70
2010,08,17,11,36,26.80
2010,08,17,11,37,26.80
2010,08,17,11,38,26.90
2010,08,17,11,39,26.90
2010,08,17,11,40,26.90
2010,08,17,11,41,26.90
2010,08,17,11,42,27.00
2010,08,17,11,43,27.10
2010,08,17,11,44,27.10
2010,08,17,11,45,27.10
2010,08,17,11,46,27.10
2010,08,17,11,47,27.10
2010,08,17,11,48,26.90
2010,08,17,11,49,26.90
2010,08,17,11,50,26.90
2010,08,17,11,51,27.00
2010,08,17,11,52,27.10
2010,08,17,11,53,27.10
2010,08,17,11,54,27.10
2010,08,17,11,55,27.20
2010,08,17,11,56,27.30
2010,08,17,11,57,27.30
2010,08,17,11,58,27.30
2010,08,17,11,59,27.30
2010,08,17,12,00,27.30
2010,08,17,12,01,27.30
2010,08,17,12,02,27.30
2010,08,17,12,03,27.30
2010,08,17,12,04,27.30
2010,08,17,12,05,27.30
2010,08,17,12,06,27.40
2010,08,17,12,07,27.40
2010,08,17,12,08,27.40
2010,08,17,12,09,27.40
2010,08,17,12,10,27.40
2010,08,17,12,11,27.50
2010,08,17,12,12,27.60
2010,08,17,12,13,27.60
2010,08,17,12,14,27.60
2010,08,17,12,15,27.70
2010,08,17,12,16,27.70
2010,08,17,12,17,27.70
2010,08,17,12,18,27.60
2010,08,17,12,19,27.60
2010,08,17,12,20,27.60
2010,08,17,12,21,27.60
2010,08,17,12,22,27.60
2010,08,17,12,23,27.70
2010,08,17,12,24,27.70
2010,08,17,12,25,27.70
2010,08,17,12,26,27.70
2010,08,17,12,27,27.70
2010,08,17,12,28,27.70
2010,08,17,12,29,27.70
2010,08,17,12,30,27.70
2010,08,17,12,31,27.70
2010,08,17,12,32,27.80
2010,08,17,12,33,27.80
2010,08,17,12,34,27.80
2010,08,17,12,35,27.90
2010,08,17,12,36,28.00
2010,08,17,12,37,28.00
2010,08,17,12,38,28.00
2010,08,17,12,39,27.90
2010,08,17,12,40,27.90
2010,08,17,12,41,27.90
2010,08,17,12,42,27.80
2010,08,17,12,43,27.80
2010,08,17,12,44,27.70
2010,08,17,12,45,27.60
2010,08,17,12,46,27.50
2010,08,17,12,47,27.40
2010,08,17,12,48,27.40
2010,08,17,12,49,27.50
2010,08,17,12,50,27.60
2010,08,17,12,51,27.60
2010,08,17,12,52,27.70
2010,08,17,12,53,27.80
2010,08,17,12,54,27.90
2010,08,17,12,55,27.90
2010,08,17,12,56,27.90
2010,08,17,12,57,27.90
2010,08,17,12,58,28.00
2010,08,17,12,59,28.00
2010,08,17,13,00,28.10
2010,08,17,13,01,28.10
2010,08,17,13,02,28.10
2010,08,17,13,03,28.20
2010,08,17,13,04,28.20
2010,08,17,13,05,28.20
2010,08,17,13,06,28.30
2010,08,17,13,07,28.30
2010,08,17,13,08,28.30
2010,08,17,13,09,28.20
2010,08,17,13,10,28.20
2010,08,17,13,11,28.20
2010,08,17,13,12,28.30
2010,08,17,13,13,28.40
2010,08,17,13,14,28.40
2010,08,17,13,15,28.60
2010,08,17,13,16,28.60
2010,08,17,13,17,28.70
2010,08,17,13,18,28.80
2010,08,17,13,19,28.80
2010,08,17,13,20,28.80
2010,08,17,13,21,28.80
2010,08,17,13,22,28.90
2010,08,17,13,23,28.90
2010,08,17,13,24,28.90
2010,08,17,13,25,28.90
2010,08,17,13,26,28.90
2010,08,17,13,27,28.90
2010,08,17,13,28,28.90
2010,08,17,13,29,28.90
2010,08,17,13,30,28.90
2010,08,17,13,31,28.90
2010,08,17,13,32,28.90
2010,08,17,13,33,28.90
2010,08,17,13,34,28.90
2010,08,17,13,35,28.90
2010,08,17,13,36,28.90
2010,08,17,13,37,28.90
2010,08,17,13,38,28.90
2010,08,17,13,39,28.90
2010,08,17,13,40,28.90
2010,08,17,13,41,28.90
2010,08,17,13,42,28.90
2010,08,17,13,43,28.90
2010,08,17,13,44,28.90
2010,08,17,13,45,28.90
2010,08,17,13,46,28.90
2010,08,17,13,47,29.00
2010,08,17,13,48,29.10
2010,08,17,13,49,29.10
2010,08,17,13,50,29.10
2010,08,17,13,51,29.00
2010,08,17,13,52,29.10
2010,08,17,13,53,29.10
2010,08,17,13,54,29.10
2010,08,17,13,55,29.10
2010,08,17,13,56,29.10
2010,08,17,13,57,29.10
2010,08,17,13,58,29.10
2010,08,17,13,59,29.10
2010,08,17,14,00,29.10
2010,08,17,14,01,29.10
2010,08,17,14,02,29.20
2010,08,17,14,03,29.20
2010,08,17,14,04,29.20
2010,08,17,14,05,29.30
2010,08,17,14,06,29.30
2010,08,17,14,07,29.30
2010,08,17,14,08,29.30
2010,08,17,14,09,29.30
2010,08,17,14,10,29.30
2010,08,17,14,11,29.20
2010,08,17,14,12,29.20
2010,08,17,14,13,29.20
2010,08,17,14,14,29.20
2010,08,17,14,15,29.30
2010,08,17,14,16,29.20
2010,08,17,14,17,29.10
2010,08,17,14,18,29.10
2010,08,17,14,19,29.00
2010,08,17,14,20,28.90
2010,08,17,14,21,28.90
2010,08,17,14,22,29.00
2010,08,17,14,23,29.10
2010,08,17,14,24,29.20
2010,08,17,14,25,29.30
2010,08,17,14,26,29.30
2010,08,17,14,27,29.30
2010,08,17,14,28,29.30
2010,08,17,14,29,29.40
2010,08,17,14,30,29.40
2010,08,17,14,31,29.40
2010,08,17,14,32,29.40
2010,08,17,14,33,29.40
2010,08,17,14,34,29.40
2010,08,17,14,35,29.40
2010,08,17,14,36,29.40
2010,08,17,14,37,29.30
2010,08,17,14,38,29.30
2010,08,17,14,39,29.30
2010,08,17,14,40,29.30
2010,08,17,14,41,29.30
2010,08,17,14,42,29.20
2010,08,17,14,43,29.10
2010,08,17,14,44,29.10
2010,08,17,14,45,29.00
2010,08,17,14,46,28.90
2010,08,17,14,47,28.90
2010,08,17,14,48,28.90
2010,08,17,14,49,28.90
2010,08,17,14,50,28.90
2010,08,17,14,51,28.90
2010,08,17,14,52,28.90
2010,08,17,14,53,28.90
2010,08,17,14,54,28.90
2010,08,17,14,55,28.90
2010,08,17,14,56,28.90
2010,08,17,14,57,28.80
2010,08,17,14,58,28.80
2010,08,17,14,59,28.80
2010,08,17,15,00,28.70
2010,08,17,15,01,28.70
2010,08,17,15,02,28.70
2010,08,17,15,03,28.70
2010,08,17,15,04,28.60
2010,08,17,15,05,28.60
2010,08,17,15,06,28.50
2010,08,17,15,07,28.40
2010,08,17,15,08,28.30
2010,08,17,15,09,28.20
2010,08,17,15,10,28.10
2010,08,17,15,11,28.00
2010,08,17,15,12,28.00
2010,08,17,15,13,28.10
2010,08,17,15,14,28.10
2010,08,17,15,15,28.20
2010,08,17,15,16,28.30
2010,08,17,15,17,28.40
2010,08,17,15,18,28.40
2010,08,17,15,19,28.60
2010,08,17,15,20,28.60
2010,08,17,15,21,28.70
2010,08,17,15,22,28.80
2010,08,17,15,23,28.90
2010,08,17,15,24,28.90
2010,08,17,15,25,29.00
2010,08,17,15,26,29.10
2010,08,17,15,27,29.10
2010,08,17,15,28,29.10
2010,08,17,15,29,29.10
2010,08,17,15,30,29.20
2010,08,17,15,31,29.20
2010,08,17,15,32,29.20
2010,08,17,15,33,29.20
2010,08,17,15,34,29.20
2010,08,17,15,35,29.20
2010,08,17,15,36,29.20
2010,08,17,15,37,29.10
2010,08,17,15,38,29.10
2010,08,17,15,39,29.20
2010,08,17,15,40,29.20
2010,08,17,15,41,29.10
2010,08,17,15,42,29.10
2010,08,17,15,43,29.00
2010,08,17,15,44,28.90
2010,08,17,15,45,28.90
2010,08,17,15,46,28.90
2010,08,17,15,47,28.90
2010,08,17,15,48,28.90
2010,08,17,15,49,28.90
2010,08,17,15,50,28.90
2010,08,17,15,51,28.90
2010,08,17,15,52,28.90
2010,08,17,15,53,28.90
2010,08,17,15,54,28.90
2010,08,17,15,55,28.90
2010,08,17,15,56,28.90
2010,08,17,15,57,28.90
2010,08,17,15,58,28.90
2010,08,17,15,59,28.90
2010,08,17,16,00,28.90
2010,08,17,16,01,29.00
2010,08,17,16,02,29.10
2010,08,17,16,03,29.10
2010,08,17,16,04,29.20
2010,08,17,16,05,29.30
2010,08,17,16,06,29.30
2010,08,17,16,07,29.30
2010,08,17,16,08,29.20
2010,08,17,16,09,29.20
2010,08,17,16,10,29.10
2010,08,17,16,11,29.10
2010,08,17,16,12,29.00
2010,08,17,16,13,28.90
2010,08,17,16,14,28.90
2010,08,17,16,15,28.90
2010,08,17,16,16,28.80
2010,08,17,16,17,28.80
2010,08,17,16,18,28.70
2010,08,17,16,19,28.70
2010,08,17,16,20,28.60
2010,08,17,16,21,28.60
2010,08,17,16,22,28.50
2010,08,17,16,23,28.40
2010,08,17,16,24,28.30
2010,08,17,16,25,28.30
2010,08,17,16,26,28.20
2010,08,17,16,27,28.10
2010,08,17,16,28,28.10
2010,08,17,16,29,28.00
2010,08,17,16,30,28.00
2010,08,17,16,31,27.90
2010,08,17,16,32,27.80
2010,08,17,16,33,27.80
2010,08,17,16,34,27.80
2010,08,17,16,35,27.70
2010,08,17,16,36,27.70
2010,08,17,16,37,27.70
2010,08,17,16,38,27.70
2010,08,17,16,39,27.70
2010,08,17,16,40,27.70
2010,08,17,16,41,27.70
2010,08,17,16,42,27.70
2010,08,17,16,43,27.70
2010,08,17,16,44,27.80
2010,08,17,16,45,27.90
2010,08,17,16,46,27.90
2010,08,17,16,47,27.90
2010,08,17,16,48,27.90
2010,08,17,16,49,27.90
2010,08,17,16,50,27.90
2010,08,17,16,51,27.90
2010,08,17,16,52,27.90
2010,08,17,16,53,27.90
2010,08,17,16,54,27.80
2010,08,17,16,55,27.80
2010,08,17,16,56,27.80
2010,08,17,16,57,27.80
2010,08,17,16,58,27.80
2010,08,17,16,59,27.80
2010,08,17,17,00,27.70
2010,08,17,17,01,27.70
2010,08,17,17,02,27.70
2010,08,17,17,03,27.70
2010,08,17,17,04,27.70
2010,08,17,17,05,27.60
2010,08,17,17,06,27.60
2010,08,17,17,07,27.60
2010,08,17,17,08,27.50
2010,08,17,17,09,27.40
2010,08,17,17,10,27.40
2010,08,17,17,11,27.40
2010,08,17,17,12,27.30
2010,08,17,17,13,27.30
2010,08,17,17,14,27.30
2010,08,17,17,15,27.30
2010,08,17,17,16,27.30
2010,08,17,17,17,27.30
2010,08,17,17,18,27.20
2010,08,17,17,19,27.20